When you browse on this site, cookies collect data to enhance your experience and personalize the content and advertising you see.
Visit our Privacy Policy to learn more. By continuing to use the site, you agree to this use of cookies and data.
  • In Belgium
  • List of Countries
  • For 7 days
  • Water Temperature
  • Satellite Maps
  • Weather Map
  • Weather Widgets
  • user-avatar
    Login

    Hourly Weather Durbuy

    Today, 22 February, Friday

    Time Temperature Precipitation Wind Pressure Humidity
    00:00 +8°C° 0 mm 1 mps 753 mmHg 94%
    01:00 +7°C° 0 mm 1 mps 753 mmHg 94%
    02:00 +7°C° 0 mm 1 mps 753 mmHg 94%
    03:00 +6°C° 0 mm 1 mps 753 mmHg 94%
    04:00 +6°C° 0 mm 1 mps 754 mmHg 94%
    05:00 +5°C° 0 mm 0 mps 754 mmHg 95%
    06:00 +5°C° 0 mm 0 mps 755 mmHg 94%
    07:00 +6°C° 0 mm 0 mps 755 mmHg 92%
    08:00 +8°C° 0 mm 1 mps 755 mmHg 90%
    09:00 +9°C° 0 mm 1 mps 756 mmHg 88%
    10:00 +10°C° 0 mm 1 mps 756 mmHg 85%
    11:00 +11°C° 0 mm 1 mps 756 mmHg 81%
    12:00 +13°C° 0 mm 2 mps 756 mmHg 78%
    13:00 +13°C° 0 mm 2 mps 756 mmHg 76%
    14:00 +13°C° 0 mm 2 mps 756 mmHg 74%
    15:00 +14°C° 0 mm 2 mps 756 mmHg 72%
    16:00 +12°C° 0 mm 2 mps 756 mmHg 79%
    17:00 +9°C° 0 mm 2 mps 756 mmHg 85%
    18:00 +8°C° 0 mm 2 mps 756 mmHg 91%
    19:00 +7°C° 0 mm 2 mps 757 mmHg 92%
    20:00 +7°C° 0 mm 2 mps 757 mmHg 92%
    21:00 +6°C° 0 mm 2 mps 757 mmHg 92%
    22:00 +6°C° 0 mm 2 mps 757 mmHg 91%
    23:00 +6°C° 0 mm 2 mps 757 mmHg 91%

    Tomorrow, 23 February, Saturday

    Time Temperature Precipitation Wind Pressure Humidity
    00:00 +4°C° 0 mm 3 mps 757 mmHg 90%
    01:00 +4°C° 0 mm 3 mps 757 mmHg 90%
    02:00 +4°C° 0 mm 3 mps 757 mmHg 91%
    03:00 +4°C° 0 mm 3 mps 757 mmHg 91%
    04:00 +3°C° 0 mm 3 mps 757 mmHg 89%
    05:00 +3°C° 0 mm 3 mps 757 mmHg 87%
    06:00 +2°C° 0 mm 3 mps 757 mmHg 85%
    07:00 +4°C° 0 mm 3 mps 757 mmHg 76%
    08:00 +5°C° 0 mm 3 mps 757 mmHg 67%
    09:00 +7°C° 0 mm 3 mps 757 mmHg 59%
    10:00 +7°C° 0 mm 4 mps 757 mmHg 52%
    11:00 +10°C° 0 mm 4 mps 757 mmHg 46%
    12:00 +12°C° 0 mm 4 mps 757 mmHg 40%
    13:00 +11°C° 0 mm 4 mps 757 mmHg 41%
    14:00 +11°C° 0 mm 4 mps 756 mmHg 42%
    15:00 +11°C° 0 mm 3 mps 756 mmHg 44%
    16:00 +9°C° 0 mm 3 mps 756 mmHg 48%
    17:00 +7°C° 0 mm 3 mps 756 mmHg 52%
    18:00 +4°C° 0 mm 3 mps 756 mmHg 56%
    19:00 +4°C° 0 mm 3 mps 756 mmHg 53%
    20:00 +4°C° 0 mm 3 mps 756 mmHg 50%
    21:00 +3°C° 0 mm 3 mps 757 mmHg 47%
    22:00 +3°C° 0 mm 4 mps 757 mmHg 45%
    23:00 +3°C° 0 mm 4 mps 757 mmHg 42%

    Day after tomorrow, 24 February, Sunday

    Time Temperature Precipitation Wind Pressure Humidity
    00:00 +3°C° 0 mm 4 mps 757 mmHg 40%
    01:00 +3°C° 0 mm 4 mps 757 mmHg 38%
    02:00 +3°C° 0 mm 3 mps 757 mmHg 37%
    03:00 +3°C° 0 mm 3 mps 757 mmHg 35%
    04:00 +2°C° 0 mm 3 mps 757 mmHg 36%
    05:00 +2°C° 0 mm 3 mps 757 mmHg 36%
    06:00 +3°C° 0 mm 2 mps 757 mmHg 36%
    07:00 +3°C° 0 mm 3 mps 757 mmHg 36%
    08:00 +5°C° 0 mm 3 mps 758 mmHg 36%
    09:00 +7°C° 0 mm 3 mps 758 mmHg 36%
    10:00 +9°C° 0 mm 3 mps 758 mmHg 35%
    11:00 +11°C° 0 mm 3 mps 758 mmHg 33%
    12:00 +13°C° 0 mm 3 mps 758 mmHg 32%
    13:00 +14°C° 0 mm 2 mps 758 mmHg 35%
    14:00 +14°C° 0 mm 2 mps 758 mmHg 38%
    15:00 +14°C° 0 mm 2 mps 758 mmHg 42%
    16:00 +12°C° 0 mm 2 mps 758 mmHg 46%
    17:00 +9°C° 0 mm 2 mps 758 mmHg 51%
    18:00 +7°C° 0 mm 2 mps 758 mmHg 56%
    19:00 +6°C° 0 mm 2 mps 758 mmHg 53%
    20:00 +6°C° 0 mm 2 mps 758 mmHg 50%
    21:00 +5°C° 0 mm 3 mps 759 mmHg 46%
    22:00 +5°C° 0 mm 3 mps 759 mmHg 46%
    23:00 +4°C° 0 mm 3 mps 758 mmHg 46%

    25 February, Monday

    Time Temperature Precipitation Wind Pressure Humidity
    00:00 +4°C° 0 mm 3 mps 758 mmHg 46%
    01:00 +5°C° 0 mm 2 mps 759 mmHg 47%
    02:00 +5°C° 0 mm 2 mps 759 mmHg 49%
    03:00 +5°C° 0 mm 1 mps 759 mmHg 50%
    04:00 +5°C° 0 mm 1 mps 759 mmHg 51%
    05:00 +5°C° 0 mm 1 mps 759 mmHg 53%
    06:00 +5°C° 0 mm 1 mps 759 mmHg 54%
    07:00 +6°C° 0 mm 2 mps 759 mmHg 53%
    08:00 +8°C° 0 mm 2 mps 759 mmHg 52%
    09:00 +10°C° 0 mm 2 mps 759 mmHg 52%
    10:00 +12°C° 0 mm 2 mps 759 mmHg 50%
    11:00 +14°C° 0 mm 2 mps 759 mmHg 49%
    12:00 +14°C° 0 mm 3 mps 759 mmHg 48%
    13:00 +15°C° 0 mm 2 mps 759 mmHg 49%
    14:00 +15°C° 0 mm 2 mps 758 mmHg 51%
    15:00 +15°C° 0 mm 2 mps 758 mmHg 53%
    16:00 +13°C° 0 mm 2 mps 758 mmHg 59%
    17:00 +10°C° 0 mm 2 mps 758 mmHg 65%
    18:00 +8°C° 0 mm 2 mps 758 mmHg 71%
    19:00 +8°C° 0 mm 2 mps 758 mmHg 71%
    20:00 +8°C° 0 mm 2 mps 758 mmHg 71%
    21:00 +7°C° 0 mm 2 mps 758 mmHg 71%
    22:00 +7°C° 0 mm 2 mps 758 mmHg 72%
    23:00 +7°C° 0 mm 2 mps 758 mmHg 73%

    26 February, Tuesday

    Time Temperature Precipitation Wind Pressure Humidity
    00:00 +7°C° 0 mm 2 mps 757 mmHg 74%
    01:00 +7°C° 0 mm 2 mps 757 mmHg 74%
    02:00 +7°C° 0 mm 2 mps 757 mmHg 74%
    03:00 +7°C° 0 mm 2 mps 756 mmHg 74%
    04:00 +7°C° 0 mm 2 mps 756 mmHg 73%
    05:00 +6°C° 0 mm 2 mps 756 mmHg 73%
    06:00 +6°C° 0 mm 2 mps 756 mmHg 72%
    07:00 +8°C° 0 mm 2 mps 756 mmHg 67%
    08:00 +9°C° 0 mm 2 mps 757 mmHg 62%
    09:00 +12°C° 0 mm 2 mps 757 mmHg 57%
    10:00 +14°C° 0 mm 2 mps 757 mmHg 53%
    11:00 +15°C° 0 mm 2 mps 757 mmHg 48%
    12:00 +17°C° 0 mm 3 mps 757 mmHg 44%
    13:00 +17°C° 0 mm 2 mps 756 mmHg 46%
    14:00 +17°C° 0 mm 2 mps 756 mmHg 48%
    15:00 +18°C° 0 mm 2 mps 755 mmHg 49%
    16:00 +15°C° 0 mm 2 mps 755 mmHg 56%
    17:00 +13°C° 0 mm 2 mps 755 mmHg 63%
    18:00 +10°C° 0 mm 2 mps 755 mmHg 70%
    19:00 +9°C° 0 mm 2 mps 755 mmHg 70%
    20:00 +8°C° 0 mm 2 mps 755 mmHg 70%
    21:00 +8°C° 0 mm 2 mps 755 mmHg 70%
    22:00 +7°C° 0 mm 2 mps 755 mmHg 69%
    23:00 +8°C° 0 mm 1 mps 754 mmHg 68%

    27 February, Wednesday

    Time Temperature Precipitation Wind Pressure Humidity
    00:00 +7°C° 0 mm 1 mps 754 mmHg 68%
    01:00 +7°C° 0 mm 1 mps 754 mmHg 68%
    02:00 +7°C° 0 mm 1 mps 754 mmHg 68%
    03:00 +7°C° 0 mm 1 mps 754 mmHg 68%
    04:00 +6°C° 0 mm 1 mps 753 mmHg 68%
    05:00 +6°C° 0 mm 1 mps 753 mmHg 69%
    06:00 +6°C° 0 mm 1 mps 753 mmHg 69%
    07:00 +8°C° 0 mm 1 mps 753 mmHg 66%
    08:00 +10°C° 0 mm 1 mps 753 mmHg 62%
    09:00 +11°C° 0 mm 1 mps 753 mmHg 59%
    10:00 +13°C° 0 mm 1 mps 753 mmHg 55%
    11:00 +15°C° 0 mm 1 mps 752 mmHg 51%
    12:00 +16°C° 0 mm 2 mps 752 mmHg 46%
    13:00 +17°C° 0 mm 2 mps 752 mmHg 48%
    14:00 +17°C° 0 mm 2 mps 751 mmHg 49%
    15:00 +17°C° 0 mm 2 mps 750 mmHg 50%
    16:00 +14°C° 0 mm 1 mps 750 mmHg 59%
    17:00 +12°C° 0 mm 1 mps 750 mmHg 68%
    18:00 +10°C° 0 mm 1 mps 750 mmHg 77%
    19:00 +9°C° 0 mm 1 mps 749 mmHg 80%
    20:00 +9°C° 0 mm 1 mps 749 mmHg 82%
    21:00 +8°C° 0 mm 1 mps 749 mmHg 84%
    22:00 +8°C° 0 mm 1 mps 749 mmHg 85%
    23:00 +8°C° 0 mm 1 mps 749 mmHg 87%
    Show more